User: anonymous   Login
Location: Albany
(35.0000°S, 118.0000°E)
Time: 07:36:15
(UTC-04:00)
Language:

Radarsat Rocket - Orbit

View from above orbital plane
View from above orbital plane
View from above satellite
View from above satellite

Ground track
Ground track

The orbit data is extracted from the following two-line orbital elements,

1 23711U 95059B   16239.88610310  .00000002  00000-0  98602-4 0  9991
2 23711 100.5317 225.7498 0367325 264.3401 100.5775 13.12686930997184
Epoch (UTC): 26 August 2016 21:15:59
Eccentricity: 0.0367325
inclination: 100.5317°
perigee height: 934 km
apogee height: 1491 km
right ascension of ascending node: 225.7498°
argument of perigee: 264.3401°
revolutions per day: 13.12686930
mean anomaly at epoch: 100.5775°
orbit number at epoch: 99718

The dashed part of the orbit path shows where the satellite is in the earth's shadow,  

DLR